Location: Kearney
(40.6990°N, 99.0810°W)
Time: 00:05:32
(UTC-05:00)

IRS-1A Rocket - Pass Details

Date: 18 December 2017
Orbit: 853 x 930 km, 99.3° (Epoch: 15 July)

Event Time Altitude Azimuth Distance (km) Brightness Sun altitude
Rises 18:26:43 0° 164° (SSE) 3,454 7.4 -13.8°
Reaches altitude 10° 18:29:06 10° 164° (SSE) 2,510 6.7 -14.3°
Maximum altitude 18:34:40 90° 181° (S) 867 4.2 -15.3°
Drops below altitude 10° 18:40:13 10° 346° (NNW) 2,494 6.6 -16.3°
Sets 18:42:35 0° 346° (NNW) 3,432 7.3 -16.7°
